Home > Weather > Gomel > Past weeks

Flag for Belarus Weather for the Past 2 Weeks in Gomel, Belarus

Now
39 °F

Partly sunny.


Feels Like: 34 °F
Forecast: 29 / 37 °F
Wind: 8 mph from South

Location: Gomel'

Current Time: Feb 12, 2016 at 3:59:49 PM

Latest Report: Feb 12, 2016 at 3:30 PM


Visibility: N/A

Pressure: 29.86 "Hg

Humidity: 81%

Dew point: 34 °F

Location of GomelLocation

Historic Weather in Gomel — Graph

°F

Gomel Temperature Yesterday

Maximum temperature yesterday: 39 °F (at 12:00 AM)
Minimum temperature yesterday: 32 °F (at 11:00 AM)
Average temperature yesterday: 34 °F

High & Low Weather Summary for the Past Weeks

 TemperatureHumidityPressure
High48 °F (Jan 30, 12:30 AM)100% (Jan 28, 7:00 PM)30.27 "Hg (Jan 28, 7:00 PM)
Low27 °F (Feb 6, 6:00 AM)46% (Jan 30, 12:30 AM)29.45 "Hg (Jan 31, 5:00 PM)
Average35 °F83%29.86 "Hg
* Reported Jan 28 3:00 PM — Feb 12 3:00 PM, Gomel, Weather by CustomWeather, © 2016

Note: Actual official high and low records may vary slightly from our data, if they occured in-between our weather recording intervals... More about our weather records

Advertising

Gomel Weather History for the Previous 24 Hours

 ConditionsComfort  
Time TempWeatherWind HumidityBarometerVisibility
3:00 PM
Fri, Feb 12
39 °FPartly sunny.6 mph81%29.86 "HgN/A
2:30 PM41 °FOvercast.10 mph76%29.83 "HgN/A
2:00 PM41 °FBroken clouds.10 mph76%29.83 "HgN/A
1:30 PM39 °FBroken clouds.8 mph81%29.83 "HgN/A
1:00 PM39 °FPartly sunny.6 mph81%29.83 "HgN/A
12:30 PM37 °FOvercast.6 mph87%29.83 "HgN/A
12:00 PM37 °FOvercast.8 mph87%29.83 "HgN/A
11:30 AM36 °FMore clouds than sun.10 mph93%29.80 "HgN/A
11:00 AM36 °FOvercast.8 mph93%29.80 "HgN/A
10:30 AM36 °FMore clouds than sun.8 mph93%29.80 "HgN/A
10:00 AM36 °FBroken clouds.10 mph93%29.77 "HgN/A
9:30 AM34 °FPartly sunny.10 mph93%29.77 "HgN/A
9:00 AM34 °FPassing clouds.10 mph93%29.74 "HgN/A
8:30 AM34 °FPassing clouds.15 mph93%29.74 "HgN/A
8:00 AM34 °FPartly cloudy.10 mph93%29.71 "HgN/A
7:30 AM34 °FPassing clouds.10 mph93%29.71 "HgN/A
7:00 AM34 °FPassing clouds.10 mph93%29.68 "HgN/A
6:30 AM34 °FLow clouds.13 mph93%29.68 "HgN/A
6:00 AM34 °FPartly cloudy.13 mph93%29.65 "HgN/A
5:00 AM34 °FPartly cloudy.10 mph93%29.65 "HgN/A
4:00 AM34 °FPartly cloudy.10 mph100%29.62 "HgN/A
3:00 AM34 °FPartly cloudy.13 mph93%29.62 "HgN/A
2:00 AM34 °FSnow flurries. Passing clouds.10 mph100%29.59 "HgN/A
12:00 AM34 °FPassing clouds.10 mph93%29.59 "HgN/A
11:00 PM
Thu, Feb 11
32 °FPassing clouds.15 mph100%29.56 "HgN/A
10:00 PM32 °FLow clouds.15 mph100%29.53 "HgN/A
9:00 PM32 °FSnow flurries. Low clouds.15 mph100%29.53 "Hg4 mi
8:00 PM32 °FSnow showers. Low clouds.20 mph100%29.53 "Hg1 mi
7:30 PM32 °FSnow showers. Low clouds.20 mph100%29.53 "Hg1 mi
7:00 PM32 °FSnow showers. Low clouds.20 mph100%29.50 "Hg1 mi
6:45 PM32 °FSnow showers. Low clouds.20 mph100%29.50 "Hg1 mi
6:30 PM32 °FSnow showers. Low clouds.20 mph100%29.50 "Hg1 mi
6:00 PM32 °FSnow showers. Low clouds.22 mph100%29.50 "Hg1 mi
5:30 PM32 °FSnow showers. Low clouds.22 mph100%29.50 "Hg1 mi
5:00 PM32 °FSnow showers. Low clouds.22 mph100%29.50 "Hg1 mi
4:30 PM32 °FSnow flurries. Low clouds.22 mph100%29.50 "Hg1 mi
4:00 PM32 °FSnow flurries. Low clouds.24 mph100%29.53 "Hg1 mi
3:30 PM32 °FSnow flurries. Low clouds.24 mph100%29.53 "Hg1 mi
3:00 PM32 °FSnow showers. Low clouds.24 mph100%29.53 "Hg1 mi
Weather by CustomWeather, © 2016

See weather overviewHow to use our weather pages